Location: アルンシュタイン
(50.0000°N, 10.0000°E)
Time: 10:17:32
(UTC+01:00)

Envisat - Pass Details

Date: 03 October 2023
Orbit: 762 x 764 km, 98.3° (Epoch: 07 December)

Event Time Altitude Azimuth Distance (km) Brightness Sun altitude
Rises 06:24:31 0° 6° (N) 3,245 6.4 -10.1°
Reaches altitude 10° 06:27:08 10° 354° (N) 2,314 5.5 -9.7°
Maximum altitude 06:31:17 26° 299° (WNW) 1,482 4.0 -9.0°
Drops below altitude 10° 06:35:25 10° 245° (WSW) 2,301 4.9 -8.4°
Enters shadow 06:36:09 - 240° (WSW) 2,545 5.1 -8.3°
